Weather History for Covington, KY

Change the Weather History Date:

Monday, April 8, 2013

  Actual Average Record
Temperature  
Mean Temperature 63 °F 52 °F  
Max Temperature 73 °F 62 °F 80 °F (2001)
Min Temperature 53 °F 41 °F 20 °F (1972)
Degree Days  
Heating Degree Days 2 14  
Month to date heating degree days 134 119  
Since 1 July heating degree days 4699 4612  
Cooling Degree Days 0 0  
Month to date cooling degree days 0 0  
Year to date cooling degree days 0 0  
Growing Degree Days 13 (Base 50)    
Moisture  
Dew Point 53 °F    
Average Humidity 75    
Maximum Humidity 100    
Minimum Humidity 49    
Precipitation  
Precipitation T in 0.14 in 2.11 in (1998)
Month to date precipitation 0.25 1.01  
Year to date precipitation 9.76 10.78  
Snow  
Snow 0.00 in 0.10 in 4.20 in (1916)
Month to date snowfall T 0.3  
Since 1 July snowfall 25.2 21.9  
Snow Depth 0.00 in    
Sea Level Pressure  
Sea Level Pressure 29.94 in    
Wind  
Wind Speed 9 mph (South)    
Max Wind Speed 22 mph    
Max Gust Speed 31 mph    
Visibility 10 miles    
Events      
T = Trace of Precipitation, MM = Missing Value Source: NWS Daily Summary

Daily Weather History Graph

Daily Weather History Graph

Search for Another Location

Airport:

Trip Planner

Search our weather history database for the weather conditions in past years. The results will help you decide how hot, cold, wet, or windy it might be!

Date:

Astronomy

Apr. 08, 2013 Rise Set
Actual Time 7:12 AM EDT 8:09 PM EDT
Civil Twilight 6:44 AM EDT 8:36 PM EDT
Nautical Twilight 6:12 AM EDT 9:09 PM EDT
Astronomical Twilight 5:39 AM EDT 9:42 PM EDT
Moon 6:01 AM EDT (4/8) 6:43 PM EDT (4/8)
Length of Visible Light 13h 51m
Length of Day
12h 57m
Waning Crescent, 3% of the Moon is Illuminated
Apr 8
Waning Crescent
Apr 10
New
Apr 18
First Quarter
Apr 25
Full
May 2
Last Quarter

Hourly Weather History & Observations

Time (EDT) Temp. Dew Point Humidity Pressure Visibility Wind Dir Wind Speed Gust Speed Precip Events Conditions
12:52 AM 55.9 °F 55.9 °F 100% 30.00 in 9.0 mi North 5.8 mph - N/A   Overcast
1:52 AM 54.0 °F 54.0 °F 100% 29.99 in 6.0 mi SE 3.5 mph - N/A   Mostly Cloudy
2:52 AM 55.0 °F 54.0 °F 96% 29.97 in 8.0 mi SSE 5.8 mph - N/A   Overcast
3:52 AM 55.9 °F 55.0 °F 97% 29.94 in 10.0 mi SSE 5.8 mph - N/A   Overcast
4:52 AM 55.0 °F 53.1 °F 93% 29.94 in 10.0 mi South 4.6 mph - N/A   Overcast
5:52 AM 53.1 °F 52.0 °F 96% 29.93 in 10.0 mi South 4.6 mph - N/A   Mostly Cloudy
6:52 AM 55.0 °F 52.0 °F 89% 29.94 in 10.0 mi SSE 6.9 mph - N/A   Mostly Cloudy
7:52 AM 55.9 °F 50.0 °F 80% 29.95 in 10.0 mi South 9.2 mph - N/A   Overcast
8:52 AM 57.0 °F 48.9 °F 74% 29.96 in 10.0 mi South 9.2 mph - N/A   Overcast
10:52 AM 64.9 °F 50.0 °F 58% 29.91 in 10.0 mi South 13.8 mph - N/A   Mostly Cloudy
11:52 AM 69.1 °F 51.1 °F 53% 29.92 in 10.0 mi SSW 17.3 mph 25.3 mph N/A   Overcast
1:52 PM 70.0 °F 52.0 °F 53% 29.91 in 10.0 mi SSW 15.0 mph 25.3 mph N/A   Overcast
2:52 PM 71.1 °F 52.0 °F 51% 29.90 in 10.0 mi SSW 12.7 mph 27.6 mph N/A   Overcast
3:52 PM 72.0 °F 53.1 °F 51% 29.89 in 10.0 mi SSW 17.3 mph 26.5 mph N/A   Overcast
4:52 PM 72.0 °F 54.0 °F 53% 29.88 in 10.0 mi SSW 13.8 mph 23.0 mph N/A   Overcast
5:52 PM 71.1 °F 54.0 °F 55% 29.88 in 10.0 mi SSW 13.8 mph - 0.00 in   Overcast
6:52 PM 70.0 °F 54.0 °F 57% 29.92 in 10.0 mi SSW 10.4 mph 19.6 mph N/A   Mostly Cloudy
7:52 PM 69.1 °F 54.0 °F 58% 29.93 in 10.0 mi SSW 9.2 mph - N/A   Overcast
8:52 PM 66.9 °F 53.1 °F 61% 29.95 in 10.0 mi SSW 6.9 mph - N/A   Overcast
9:52 PM 66.0 °F 53.1 °F 63% 29.96 in 10.0 mi SSW 5.8 mph - N/A   Partly Cloudy
10:52 PM 61.0 °F 53.1 °F 75% 29.98 in 10.0 mi SSW 5.8 mph - N/A   Partly Cloudy
11:52 PM 63.0 °F 53.1 °F 70% 29.99 in 10.0 mi SSW 5.8 mph - N/A   Mostly Cloudy